軌道要素
The following orbital elements are taken from MPC 64113:
Epoch 2008 Aug. 2.0 TT = JDT 2454680.5
T 2008 Aug. 11.9208 TT MPC
q 4.828979 (2000.0) P Q
n 0.0282173 Peri. 269.9917 -0.1283696 -0.9876242
a 10.685430 Node 189.0302 +0.9702925 -0.1438641
e 0.548078 Incl. 35.0372 -0.2050702 -0.0624629
P 34.9
From 89 observations 2007 Nov. 13-2008 Oct. 8, mean residual 0".6.
|